Eurocargo Valencia — IBGZ — position and weather

sailwx.info

Track history (hours):
 
Tides and Currents Weather Stations Pressure Air Temp Water Temp Dewpoint Dewpoint Depression Visibility Wind Speed Wind Dir Waves Ship Positions

Eurocargo Valencia

Last reported at 2014-Oct-23 00:17 UTC. Time now 2014-Oct-23 06:06 UTC.
Position N 37°22' E 023°60'.

Length 196 m; draft 6.4 m.

Type: Cargo ship. MMSI: 247579000.

Date/timePositionNaut miles runAvg speedWind from/ knotsBaromVisibWave heightAir tempDewpointWater temp
2014-Oct-23 00:17N 37°22' E 023°60'1115.1
2014-Oct-22 23:34N 37°31' E 024°08'1614.8
2014-Oct-22 22:29N 37°44' E 024°19'1515.4
2014-Oct-22 21:31N 37°55' E 024°33'1714.8
2014-Oct-22 20:23N 38°09' E 024°44'24412.2
2014-Oct-22 00:28N 40°26' E 029°04'0 0.0
2014-Oct-21 16:32N 40°26' E 029°05'1513.0
2014-Oct-21 15:24N 40°29' E 028°46'911.1
2014-Oct-21 14:33N 40°38' E 028°49'1514.7
2014-Oct-21 13:33N 40°42' E 029°08'1513.8
2014-Oct-21 12:27N 40°45' E 029°28'12 1.4
2014-Oct-21 03:33N 40°44' E 029°44'1110.7
2014-Oct-21 02:31N 40°45' E 029°29'1010.7
2014-Oct-21 01:33N 40°43' E 029°16'1514.5
2014-Oct-21 00:33N 40°43' E 028°56'1414.4
2014-Oct-20 23:33N 40°44' E 028°37'2214.7
2014-Oct-20 22:04N 40°44' E 028°09'5714.5
2014-Oct-20 18:08N 40°29' E 026°56'1014.3
2014-Oct-20 17:26N 40°25' E 026°44'21313.1
2014-Oct-20 01:09N 37°36' E 023°58'914.3
2014-Oct-20 00:33N 37°36' E 023°47'1414.6
2014-Oct-19 23:34N 37°48' E 023°38'9 8.3
2014-Oct-19 22:32N 37°57' E 023°36'0 0.0
2014-Oct-19 21:32N 37°57' E 023°36'0 0.0
2014-Oct-19 20:32N 37°57' E 023°36'0 0.0
2014-Oct-19 19:32N 37°57' E 023°36'0 0.0
2014-Oct-19 18:32N 37°57' E 023°36'2 2.4
2014-Oct-19 17:33N 37°55' E 023°37'5 4.7
2014-Oct-19 16:34N 37°51' E 023°39'1313.0
2014-Oct-19 15:34N 37°38' E 023°45'  
Track history (hours):
 
Tides and Currents Weather Stations Pressure Air Temp Water Temp Dewpoint Dewpoint Depression Visibility Wind Speed Wind Dir Waves Ship Positions

Eurocargo Valencia

Last reported at 2014-Oct-23 00:17 UTC. Time now 2014-Oct-23 06:06 UTC.
Position N 37°22' E 023°60'.

Length 196 m; draft 6.4 m.

Type: Cargo ship. MMSI: 247579000.

Date/timePositionNaut miles runAvg speedWind from/ knotsBaromVisibWave heightAir tempDewpointWater temp
2014-Oct-23 00:17N 37°22' E 023°60'1115.1
2014-Oct-22 23:34N 37°31' E 024°08'1614.8
2014-Oct-22 22:29N 37°44' E 024°19'1515.4
2014-Oct-22 21:31N 37°55' E 024°33'1714.8
2014-Oct-22 20:23N 38°09' E 024°44'24412.2
2014-Oct-22 00:28N 40°26' E 029°04'0 0.0
2014-Oct-21 16:32N 40°26' E 029°05'1513.0
2014-Oct-21 15:24N 40°29' E 028°46'911.1
2014-Oct-21 14:33N 40°38' E 028°49'1514.7
2014-Oct-21 13:33N 40°42' E 029°08'1513.8
2014-Oct-21 12:27N 40°45' E 029°28'12 1.4
2014-Oct-21 03:33N 40°44' E 029°44'1110.7
2014-Oct-21 02:31N 40°45' E 029°29'1010.7
2014-Oct-21 01:33N 40°43' E 029°16'1514.5
2014-Oct-21 00:33N 40°43' E 028°56'1414.4
2014-Oct-20 23:33N 40°44' E 028°37'2214.7
2014-Oct-20 22:04N 40°44' E 028°09'5714.5
2014-Oct-20 18:08N 40°29' E 026°56'1014.3
2014-Oct-20 17:26N 40°25' E 026°44'21313.1
2014-Oct-20 01:09N 37°36' E 023°58'914.3
2014-Oct-20 00:33N 37°36' E 023°47'1414.6
2014-Oct-19 23:34N 37°48' E 023°38'9 8.3
2014-Oct-19 22:32N 37°57' E 023°36'0 0.0
2014-Oct-19 21:32N 37°57' E 023°36'0 0.0
2014-Oct-19 20:32N 37°57' E 023°36'0 0.0
2014-Oct-19 19:32N 37°57' E 023°36'0 0.0
2014-Oct-19 18:32N 37°57' E 023°36'2 2.4
2014-Oct-19 17:33N 37°55' E 023°37'5 4.7
2014-Oct-19 16:34N 37°51' E 023°39'1313.0
2014-Oct-19 15:34N 37°38' E 023°45'  

Dump ship's entire track history